IBE245 EDDS-LSGG

Flight info

Callsign IBE245
Flight time 0h 42m
Altitude 25000
Route ROTWE5B/25 ROTWE Y126 TUBLO N850 NATOR DCT LUTIX DCT BENOT
Aircraft A320/M-SDE3FGHIRWY/LB1

Departure

Time 2026-05-05 16:33
Airport Stuttgart Airport (EDDS)

Arrival

Time 2026-05-05 17:16
Airport Geneva International Airport (LSGG)
Time Latitude Longitude Altitude Speed Heading
2026-05-05 16:06 48.68954 9.19726 1291 ft 0 kts 343°
2026-05-05 16:16 48.68947 9.19729 1290 ft 2 kts 343°
2026-05-05 16:17 48.68914 9.19742 1289 ft 2 kts 33°
2026-05-05 16:17 48.68908 9.19733 1290 ft 0 kts 63°
2026-05-05 16:19 48.68912 9.19754 1287 ft 6 kts 71°
2026-05-05 16:19 48.68816 9.19924 1289 ft 12 kts 120°
2026-05-05 16:20 48.68869 9.20183 1287 ft 15 kts 73°
2026-05-05 16:20 48.68928 9.20512 1287 ft 18 kts 76°
2026-05-05 16:21 48.69005 9.20905 1288 ft 21 kts 73°
2026-05-05 16:22 48.69138 9.21599 1290 ft 25 kts 73°
2026-05-05 16:22 48.69234 9.22111 1285 ft 26 kts 75°
2026-05-05 16:23 48.69330 9.22648 1287 ft 27 kts 72°
2026-05-05 16:23 48.69385 9.22921 1288 ft 27 kts 74°
2026-05-05 16:23 48.69489 9.23479 1287 ft 28 kts 74°
2026-05-05 16:24 48.69535 9.23711 1285 ft 20 kts 74°
2026-05-05 16:24 48.69567 9.23882 1290 ft 9 kts 74°
2026-05-05 16:24 48.69576 9.23928 1287 ft 0 kts 75°
2026-05-05 16:26 48.69590 9.24005 1286 ft 9 kts 73°
2026-05-05 16:26 48.69600 9.24189 1285 ft 0 kts 114°
2026-05-05 16:27 48.69597 9.24195 1285 ft 4 kts 118°
2026-05-05 16:28 48.69576 9.24241 1288 ft 5 kts 127°
2026-05-05 16:28 48.69557 9.24275 1288 ft 4 kts 134°
2026-05-05 16:28 48.69542 9.24291 1287 ft 0 kts 150°
2026-05-05 16:31 48.69541 9.24292 1288 ft 2 kts 150°
2026-05-05 16:31 48.69491 9.24316 1285 ft 9 kts 173°
2026-05-05 16:32 48.69432 9.24312 1285 ft 8 kts 199°
2026-05-05 16:32 48.69390 9.24277 1290 ft 6 kts 227°
2026-05-05 16:32 48.69371 9.24223 1288 ft 6 kts 249°
2026-05-05 16:32 48.69320 9.23981 1291 ft 60 kts 253°
2026-05-05 16:33 48.69140 9.23021 1288 ft 127 kts 254°
2026-05-05 16:33 48.68861 9.21467 1357 ft 172 kts 257°
2026-05-05 16:33 48.68565 9.19708 2025 ft 171 kts 255°
2026-05-05 16:33 48.68234 9.18001 2822 ft 168 kts 253°
2026-05-05 16:34 48.67893 9.16213 3262 ft 187 kts 253°
2026-05-05 16:34 48.67514 9.14202 3572 ft 210 kts 253°
2026-05-05 16:34 48.67088 9.11965 3976 ft 234 kts 253°
2026-05-05 16:34 48.66613 9.09491 4614 ft 252 kts 252°
2026-05-05 16:35 48.66118 9.06911 4921 ft 256 kts 252°
2026-05-05 16:35 48.65622 9.04330 4996 ft 255 kts 252°
2026-05-05 16:35 48.65127 9.01756 5005 ft 255 kts 252°
2026-05-05 16:35 48.64622 8.99150 5289 ft 264 kts 252°
2026-05-05 16:36 48.64108 8.96512 6439 ft 259 kts 252°
2026-05-05 16:36 48.63598 8.93901 7434 ft 260 kts 251°
2026-05-05 16:36 48.63089 8.91306 8372 ft 262 kts 251°
2026-05-05 16:36 48.62562 8.88612 9297 ft 266 kts 251°
2026-05-05 16:37 48.61940 8.85965 10107 ft 272 kts 242°
2026-05-05 16:37 48.60754 8.83677 10405 ft 294 kts 221°
2026-05-05 16:37 48.59118 8.81690 10955 ft 306 kts 219°
2026-05-05 16:37 48.57425 8.79684 11708 ft 312 kts 219°
2026-05-05 16:38 48.55702 8.77654 12477 ft 317 kts 219°
2026-05-05 16:38 48.53948 8.75589 13250 ft 322 kts 219°
2026-05-05 16:38 48.52167 8.73490 13707 ft 327 kts 219°
2026-05-05 16:38 48.50378 8.71375 13807 ft 327 kts 219°
2026-05-05 16:39 48.48584 8.69250 14016 ft 331 kts 219°
2026-05-05 16:39 48.46770 8.67099 14781 ft 332 kts 219°
2026-05-05 16:39 48.44946 8.64937 15479 ft 336 kts 218°
2026-05-05 16:39 48.43099 8.62750 16139 ft 340 kts 218°
2026-05-05 16:40 48.41231 8.60543 16790 ft 344 kts 218°
2026-05-05 16:40 48.39331 8.58305 17453 ft 348 kts 217°
2026-05-05 16:40 48.37414 8.56052 18106 ft 352 kts 217°
2026-05-05 16:40 48.35469 8.53765 18661 ft 356 kts 217°
2026-05-05 16:41 48.33509 8.51461 19231 ft 360 kts 217°
2026-05-05 16:41 48.31528 8.49132 19805 ft 363 kts 217°
2026-05-05 16:41 48.29533 8.46789 20388 ft 366 kts 217°
2026-05-05 16:41 48.27547 8.44459 20938 ft 369 kts 217°
2026-05-05 16:42 48.25516 8.42076 21495 ft 372 kts 217°
2026-05-05 16:42 48.23467 8.39673 22044 ft 375 kts 217°
2026-05-05 16:42 48.21400 8.37256 22591 ft 378 kts 217°
2026-05-05 16:42 48.19318 8.34830 23113 ft 381 kts 217°
2026-05-05 16:43 48.17210 8.32390 23604 ft 384 kts 215°
2026-05-05 16:43 48.14977 8.30174 24032 ft 387 kts 212°
2026-05-05 16:43 48.12707 8.27983 24482 ft 388 kts 212°
2026-05-05 16:43 48.10435 8.25785 24773 ft 388 kts 212°
2026-05-05 16:44 48.08184 8.23610 24839 ft 379 kts 212°
2026-05-05 16:44 48.06014 8.21516 24848 ft 367 kts 211°
2026-05-05 16:44 48.03877 8.19458 24848 ft 364 kts 212°
2026-05-05 16:44 48.01757 8.17416 24852 ft 362 kts 211°
2026-05-05 16:45 47.99638 8.15381 24852 ft 362 kts 211°
2026-05-05 16:45 47.97517 8.13350 24852 ft 362 kts 211°
2026-05-05 16:45 47.95399 8.11322 24851 ft 362 kts 211°
2026-05-05 16:45 47.93280 8.09292 24859 ft 362 kts 211°
2026-05-05 16:46 47.91167 8.07267 24858 ft 360 kts 211°
2026-05-05 16:46 47.89055 8.05249 24858 ft 360 kts 211°
2026-05-05 16:46 47.86948 8.03236 24858 ft 360 kts 211°
2026-05-05 16:46 47.84839 8.01219 24862 ft 360 kts 211°
2026-05-05 16:47 47.82729 7.99210 24863 ft 360 kts 211°
2026-05-05 16:47 47.80620 7.97202 24862 ft 360 kts 211°
2026-05-05 16:47 47.78537 7.95218 24862 ft 360 kts 211°
2026-05-05 16:47 47.76432 7.93214 24863 ft 360 kts 211°
2026-05-05 16:48 47.74326 7.91212 24863 ft 360 kts 211°
2026-05-05 16:48 47.72215 7.89208 24865 ft 360 kts 211°
2026-05-05 16:48 47.70108 7.87210 24864 ft 359 kts 211°
2026-05-05 16:48 47.68000 7.85219 24868 ft 359 kts 211°
2026-05-05 16:49 47.65890 7.83228 24869 ft 359 kts 211°
2026-05-05 16:49 47.63782 7.81236 24871 ft 359 kts 212°
2026-05-05 16:49 47.61675 7.79245 24875 ft 359 kts 211°
2026-05-05 16:49 47.59566 7.77252 24874 ft 359 kts 211°
2026-05-05 16:50 47.57460 7.75269 24874 ft 359 kts 211°
2026-05-05 16:50 47.55353 7.73292 24873 ft 359 kts 211°
2026-05-05 16:50 47.53244 7.71314 24878 ft 358 kts 211°
2026-05-05 16:50 47.51155 7.69354 24673 ft 351 kts 211°
2026-05-05 16:51 47.49122 7.67447 24434 ft 343 kts 211°
2026-05-05 16:51 47.47120 7.65569 24201 ft 340 kts 211°
2026-05-05 16:51 47.45156 7.63724 23979 ft 338 kts 211°
2026-05-05 16:51 47.43172 7.61859 23734 ft 337 kts 211°
2026-05-05 16:52 47.41200 7.60005 23498 ft 336 kts 211°
2026-05-05 16:52 47.39227 7.58155 23235 ft 335 kts 211°
2026-05-05 16:52 47.37259 7.56320 22955 ft 333 kts 211°
2026-05-05 16:52 47.35303 7.54505 22673 ft 331 kts 211°
2026-05-05 16:53 47.33359 7.52698 22401 ft 329 kts 211°
2026-05-05 16:53 47.31436 7.50913 22140 ft 325 kts 211°
2026-05-05 16:53 47.29528 7.49138 21901 ft 323 kts 211°
2026-05-05 16:53 47.27628 7.47369 21631 ft 322 kts 211°
2026-05-05 16:54 47.25739 7.45614 21383 ft 321 kts 211°
2026-05-05 16:54 47.23852 7.43870 21123 ft 320 kts 211°
2026-05-05 16:54 47.21975 7.42133 20921 ft 318 kts 211°
2026-05-05 16:54 47.20100 7.40398 20885 ft 318 kts 211°
2026-05-05 16:55 47.18230 7.38661 20892 ft 318 kts 213°
2026-05-05 16:55 47.16491 7.36654 20893 ft 319 kts 221°
2026-05-05 16:55 47.14973 7.34264 20894 ft 320 kts 230°
2026-05-05 16:55 47.13593 7.31696 20893 ft 320 kts 230°
2026-05-05 16:56 47.12228 7.29163 20892 ft 320 kts 230°
2026-05-05 16:56 47.10842 7.26602 20884 ft 320 kts 230°
2026-05-05 16:56 47.09455 7.24054 20885 ft 320 kts 230°
2026-05-05 16:56 47.08062 7.21503 20886 ft 320 kts 229°
2026-05-05 16:57 47.06667 7.18947 20669 ft 319 kts 230°
2026-05-05 16:57 47.05287 7.16413 20427 ft 317 kts 230°
2026-05-05 16:57 47.03914 7.13890 20172 ft 316 kts 230°
2026-05-05 16:57 47.02549 7.11383 19930 ft 314 kts 230°
2026-05-05 16:58 47.01186 7.08882 19677 ft 313 kts 230°
2026-05-05 16:58 47.00288 7.07237 19506 ft 312 kts 230°
2026-05-05 16:58 46.98935 7.04765 19265 ft 310 kts 230°
2026-05-05 16:58 46.97595 7.02315 18977 ft 306 kts 230°
2026-05-05 16:59 46.96264 6.99890 18594 ft 305 kts 230°
2026-05-05 16:59 46.94933 6.97468 18190 ft 304 kts 230°
2026-05-05 16:59 46.93606 6.95056 17796 ft 302 kts 230°
2026-05-05 16:59 46.92314 6.92732 17652 ft 285 kts 227°
2026-05-05 17:00 46.90906 6.90857 17380 ft 276 kts 216°
2026-05-05 17:00 46.89235 6.89455 16936 ft 279 kts 204°
2026-05-05 17:00 46.87426 6.88374 16496 ft 282 kts 204°
2026-05-05 17:00 46.85605 6.87285 16052 ft 284 kts 204°
2026-05-05 17:01 46.83799 6.86202 15621 ft 277 kts 204°
2026-05-05 17:01 46.82037 6.85143 15196 ft 271 kts 204°
2026-05-05 17:01 46.80312 6.84107 14777 ft 265 kts 204°
2026-05-05 17:01 46.78641 6.83106 14558 ft 254 kts 204°
2026-05-05 17:02 46.77026 6.82140 14370 ft 249 kts 204°
2026-05-05 17:02 46.75422 6.81176 14107 ft 250 kts 204°
2026-05-05 17:02 46.73805 6.80202 13774 ft 252 kts 204°
2026-05-05 17:02 46.72180 6.79228 13404 ft 252 kts 204°
2026-05-05 17:03 46.70577 6.78269 13004 ft 246 kts 204°
2026-05-05 17:03 46.69008 6.77329 12608 ft 241 kts 204°
2026-05-05 17:03 46.67466 6.76402 12221 ft 239 kts 204°
2026-05-05 17:03 46.66005 6.75286 11839 ft 237 kts 215°
2026-05-05 17:04 46.64732 6.73738 11423 ft 241 kts 225°
2026-05-05 17:04 46.63608 6.71906 10999 ft 244 kts 227°
2026-05-05 17:04 46.62468 6.70050 10583 ft 247 kts 227°
2026-05-05 17:04 46.61313 6.68179 10180 ft 250 kts 227°
2026-05-05 17:05 46.60183 6.66345 9952 ft 236 kts 227°
2026-05-05 17:05 46.59121 6.64619 9785 ft 223 kts 226°
2026-05-05 17:05 46.58097 6.62958 9562 ft 219 kts 227°
2026-05-05 17:05 46.57082 6.61313 9255 ft 219 kts 226°
2026-05-05 17:06 46.56056 6.59656 8882 ft 221 kts 227°
2026-05-05 17:06 46.55035 6.58005 8521 ft 224 kts 227°
2026-05-05 17:06 46.53991 6.56316 8171 ft 225 kts 227°
2026-05-05 17:06 46.52937 6.54609 7810 ft 227 kts 227°
2026-05-05 17:07 46.51883 6.52903 7463 ft 225 kts 227°
2026-05-05 17:07 46.50869 6.51266 7313 ft 210 kts 227°
2026-05-05 17:07 46.49914 6.49725 7187 ft 203 kts 227°
2026-05-05 17:07 46.48974 6.48208 7074 ft 201 kts 227°
2026-05-05 17:08 46.48040 6.46702 6950 ft 201 kts 227°
2026-05-05 17:08 46.47109 6.45200 6989 ft 200 kts 227°
2026-05-05 17:08 46.46148 6.43738 6940 ft 198 kts 223°
2026-05-05 17:08 46.45179 6.42415 6877 ft 186 kts 224°
2026-05-05 17:09 46.44260 6.41097 6710 ft 185 kts 225°
2026-05-05 17:09 46.43362 6.39775 6498 ft 184 kts 225°
2026-05-05 17:09 46.42459 6.38439 6276 ft 186 kts 225°
2026-05-05 17:09 46.41558 6.37102 6019 ft 184 kts 225°
2026-05-05 17:10 46.40664 6.35777 5771 ft 182 kts 225°
2026-05-05 17:10 46.39789 6.34480 5519 ft 178 kts 225°
2026-05-05 17:10 46.38946 6.33230 5283 ft 174 kts 225°
2026-05-05 17:10 46.38101 6.31979 5051 ft 174 kts 225°
2026-05-05 17:11 46.37253 6.30724 4828 ft 174 kts 225°
2026-05-05 17:11 46.36406 6.29471 4584 ft 173 kts 226°
2026-05-05 17:11 46.35564 6.28226 4363 ft 169 kts 226°
2026-05-05 17:11 46.34775 6.27060 4131 ft 156 kts 226°
2026-05-05 17:12 46.34024 6.25950 3922 ft 152 kts 226°
2026-05-05 17:12 46.33280 6.24851 3716 ft 152 kts 225°
2026-05-05 17:12 46.32538 6.23755 3512 ft 154 kts 225°
2026-05-05 17:12 46.31790 6.22651 3312 ft 154 kts 225°
2026-05-05 17:13 46.31036 6.21539 3106 ft 155 kts 225°
2026-05-05 17:13 46.30267 6.20494 2960 ft 142 kts 221°
2026-05-05 17:13 46.29620 6.19495 2810 ft 130 kts 228°
2026-05-05 17:13 46.29025 6.18536 2462 ft 132 kts 227°
2026-05-05 17:14 46.28399 6.17586 2330 ft 132 kts 225°
2026-05-05 17:14 46.27737 6.16626 2316 ft 135 kts 221°
2026-05-05 17:14 46.27047 6.15668 2024 ft 137 kts 224°
2026-05-05 17:14 46.26395 6.14694 1798 ft 133 kts 227°
2026-05-05 17:15 46.25732 6.13760 1628 ft 133 kts 225°
2026-05-05 17:15 46.25096 6.12784 1459 ft 134 kts 226°
2026-05-05 17:15 46.24451 6.11857 1371 ft 120 kts 226°
2026-05-05 17:15 46.24008 6.11188 1379 ft 56 kts 225°
2026-05-05 17:16 46.23791 6.10880 1379 ft 38 kts 224°
2026-05-05 17:16 46.23598 6.10722 1381 ft 12 kts 198°
2026-05-05 17:16 46.23556 6.10700 1386 ft 5 kts 198°
2026-05-05 17:16 46.23533 6.10692 1384 ft 2 kts 189°
2026-05-05 17:17 46.23527 6.10691 1384 ft 4 kts 188°
2026-05-05 17:17 46.23462 6.10696 1388 ft 9 kts 181°
2026-05-05 17:17 46.23412 6.10709 1384 ft 6 kts 149°
2026-05-05 17:17 46.23369 6.10765 1388 ft 3 kts 140°
2026-05-05 17:18 46.23358 6.10777 1388 ft 3 kts 141°
2026-05-05 17:18 46.23318 6.10796 1389 ft 5 kts 179°
2026-05-05 17:18 46.23267 6.10783 1390 ft 10 kts 193°
2026-05-05 17:18 46.23223 6.10740 1402 ft 5 kts 227°
2026-05-05 17:19 46.23215 6.10728 1399 ft 1 kts 227°
2026-05-05 17:19 46.23164 6.10653 1399 ft 12 kts 218°
2026-05-05 17:19 46.23121 6.10639 1397 ft 3 kts 142°
2026-05-05 17:19 46.23106 6.10660 1398 ft 3 kts 136°
2026-05-05 17:20 46.23102 6.10664 1397 ft 0 kts 139°
2026-05-05 17:20 46.23099 6.10668 1405 ft 2 kts 139°
2026-05-05 17:20 46.23099 6.10669 1405 ft 0 kts 139°